Location: Volkssternwarte_EN
(51.3230°N, 7.4010°E)
Time: 13:43:30
(UTC+01:00)

BlueWalker 3 - Pass Details

Date: 02 December 2022
Orbit: 499 x 517 km, 53.2° (Epoch: 30 January)

Event Time Altitude Azimuth Distance (km) Brightness Sun altitude
Rises 18:38:26 0° 277° (W) 2,628 6.9 -19.9°
Reaches altitude 10° 18:40:40 10° 281° (W) 1,738 5.7 -20.2°
Maximum altitude 18:44:34 65° 4° (N) 563 2.0 -20.8°
Enters shadow 18:44:48 64° 26° (NNE) 570 1.9 -20.8°
